WetterOnline ( https://www.wetteronline.at )

Wetter aktuell Darmstadt

Aktuelles Wetter: Offenbach (119m)

6-stündlich | Neueste Meldungen
Ortszeit Temperatur Wetter
So, 25.09. 2:00 12.4° C leichter Regen
Sa, 24.09. 20:00 14.8° C bewölkt
Sa, 24.09. 14:00 18.0° C bedeckt
Sa, 24.09. 8:00 7.4° C bedeckt
Sa, 24.09. 2:00 10.1° C bedeckt
Fr, 23.09. 20:00 13.5° C bedeckt
Fr, 23.09. 14:00 17.9° C wolkig
Fr, 23.09. 8:00 5.8° C bedeckt
Ortszeit Temperatur Wetter
So, 25.09. 3:30 12.5° C leichter Regen
So, 25.09. 3:20 12.5° C leichter Regen
So, 25.09. 3:10 12.5° C Sprühregen
So, 25.09. 3:00 12.5° C leichter Regen
So, 25.09. 2:50 12.5° C leichter Regen
So, 25.09. 2:40 12.4° C leichter Regen
So, 25.09. 2:30 12.4° C leichter Regen
So, 25.09. 2:00 12.4° C leichter Regen
So, 25.09. 1:30 12.5° C leichter Regen
So, 25.09. 1:00 12.6° C leichter Regen
So, 25.09. 0:30 12.8° C Sprühregen
Ortszeit Relative Feuchte Sichtweite
So, 25.09. 2:00 97% 3.0 km
Sa, 24.09. 20:00 79% 40 km
Sa, 24.09. 14:00 53% 45 km
Sa, 24.09. 8:00 97% 14 km
Sa, 24.09. 2:00 94% 27 km
Fr, 23.09. 20:00 74% 65 km
Fr, 23.09. 14:00 46% 55 km
Fr, 23.09. 8:00 97% 20 km
Ortszeit Relative Feuchte Sichtweite
So, 25.09. 3:30 97% 4.2 km
So, 25.09. 3:20 97% -
So, 25.09. 3:10 97% -
So, 25.09. 3:00 97% 4.4 km
So, 25.09. 2:50 97% -
So, 25.09. 2:40 97% -
So, 25.09. 2:30 97% 1.6 km
So, 25.09. 2:00 97% 3.0 km
So, 25.09. 1:30 96% 5.0 km
So, 25.09. 1:00 96% 9 km
So, 25.09. 0:30 96% 15 km
Ortszeit Niederschlagsmenge Niederschlagsart
So, 25.09. 2:00 3 l/m2 in 6 Std. Regen
Sa, 24.09. 20:00 0.1 l/m2 in 12 Std. Regen
Sa, 24.09. 14:00 0.0 l/m2 in 6 Std. -
Sa, 24.09. 8:00 0.0 l/m2 in 12 Std. -
Sa, 24.09. 2:00 0.0 l/m2 in 6 Std. -
Fr, 23.09. 20:00 0.0 l/m2 in 12 Std. -
Fr, 23.09. 14:00 0.0 l/m2 in 6 Std. -
Fr, 23.09. 8:00 0.0 l/m2 in 12 Std. -
Ortszeit Niederschlagsmenge Niederschlagsart
So, 25.09. 3:30 0.1 l/m2 in 1 Std. -
So, 25.09. 3:20 keine Meldung -
So, 25.09. 3:10 keine Meldung -
So, 25.09. 3:00 0.8 l/m2 in 1 Std. Regen
So, 25.09. 2:50 keine Meldung -
So, 25.09. 2:40 keine Meldung -
So, 25.09. 2:30 0.7 l/m2 in 1 Std. -
So, 25.09. 2:00 1.0 l/m2 in 1 Std. Regen
So, 25.09. 1:30 0.7 l/m2 in 1 Std. -
So, 25.09. 1:00 0.1 l/m2 in 1 Std. Regen
So, 25.09. 0:30 0.1 l/m2 in 1 Std. -
Ortszeit Stärke Spitze Richtung
km/h Bft. km/h Grad Sektor
So, 25.09. 2:00 0 0 29 - -
Sa, 24.09. 20:00 2 1 11 190° S
Sa, 24.09. 14:00 7 2 14 160° S
Sa, 24.09. 8:00 4 1 7 90° O
Sa, 24.09. 2:00 4 1 7 120° SO
Fr, 23.09. 20:00 2 1 19 110° O
Fr, 23.09. 14:00 4 1 14 200° S
Fr, 23.09. 8:00 4 1 11 40° NO
Ortszeit Stärke Spitze Richtung
km/h Bft. km/h Grad Sektor
So, 25.09. 3:30 4 1 4 360° N
So, 25.09. 3:20 4 1 - 360° N
So, 25.09. 3:10 4 1 - 350° N
So, 25.09. 3:00 2 1 6 310° NW
So, 25.09. 2:50 2 1 - 310° NW
So, 25.09. 2:40 2 1 - 300° NW
So, 25.09. 2:30 4 1 4 240° SW
So, 25.09. 2:00 0 0 4 - -
So, 25.09. 1:30 2 1 6 300° NW
So, 25.09. 1:00 4 1 7 230° SW
So, 25.09. 0:30 4 1 7 230° SW
Ortszeit Untergrenze Bedeckung Gattung
total tief tief mittel hoch
So, 25.09. 2:00 2100 m 8/8 8/8 - - -
Sa, 24.09. 20:00 1500 m 8/8 4/8 - - -
Sa, 24.09. 14:00 3000 m 8/8 8/8 - - -
Sa, 24.09. 8:00 4500 m 8/8 8/8 - - -
Sa, 24.09. 2:00 3600 m 8/8 8/8 - - -
Fr, 23.09. 20:00 4500 m 8/8 8/8 - - -
Fr, 23.09. 14:00 6600 m 8/8 5/8 - - -
Fr, 23.09. 8:00 6300 m 8/8 8/8 - - -
Ortszeit Bedeckungsgrad in Achtel und Wolkenuntergrenze
So, 25.09. 3:30 8(2100m)
So, 25.09. 3:20 8(2100m)
So, 25.09. 3:10 8
So, 25.09. 3:00 8(1800m)
So, 25.09. 2:50 8(1800m)
So, 25.09. 2:40 8
So, 25.09. 2:30 7(2100m)
So, 25.09. 2:00 7(2100m) 8(2400m)
So, 25.09. 1:30 7(1800m) 8(2400m)
So, 25.09. 1:00 1(270m) 7(2400m) 8(2700m)
So, 25.09. 0:30 1(240m) 7(1440m) 8(1800m)
Ortszeit Luftdruck NN (hPa) Tendenz (hPa in 3 Std.)
So, 25.09. 2:00 1013 - 0,1
Sa, 24.09. 20:00 1012 + 0,2
Sa, 24.09. 14:00 1013 - 0,7
Sa, 24.09. 8:00 1013 - 0,1
Sa, 24.09. 2:00 1014 - 0,5
Fr, 23.09. 20:00 1015 - 0,5
Fr, 23.09. 14:00 1017 - 1,7
Fr, 23.09. 8:00 1019 - 0,5
Ortszeit Luftdruck NN (hPa) Tendenz (hPa in 3 Std.)
So, 25.09. 3:30 1013 - 0,7
So, 25.09. 3:20 1013 keine Meldung
So, 25.09. 3:10 1013 keine Meldung
So, 25.09. 3:00 1013 - 0,5
So, 25.09. 2:50 1013 keine Meldung
So, 25.09. 2:40 1013 keine Meldung
So, 25.09. 2:30 1013 - 0,1
So, 25.09. 2:00 1013 - 0,1
So, 25.09. 1:30 1013 - 0,1
So, 25.09. 1:00 1013 + 0,3
So, 25.09. 0:30 1014 + 0,6
Ortszeit Schneehöhe (cm)
So, 25.09. 2:00 0
Sa, 24.09. 20:00 0
Sa, 24.09. 14:00 0
Sa, 24.09. 8:00 0
Sa, 24.09. 2:00 0
Fr, 23.09. 20:00 0
Fr, 23.09. 14:00 0
Fr, 23.09. 8:00 0
Ortszeit Schneehöhe (cm)
So, 25.09. 3:30 0
So, 25.09. 3:20 0
So, 25.09. 3:10 0
So, 25.09. 3:00 0
So, 25.09. 2:50 0
So, 25.09. 2:40 0
So, 25.09. 2:30 0
So, 25.09. 2:00 0
So, 25.09. 1:30 0
So, 25.09. 1:00 0
So, 25.09. 0:30 0
Link zu dieser Seite / Seite empfehlen

Das Wetter in ...